SP9KB-14 Weather Reports


time (UTC)temp
C
wind
direction
speed
KPH
gust
KPH
rain 1hr
cm
rain 24hr
cm
rain mn
cm
humidity
%
barometer
mb
20260507103653 19 171 1.6 1.6 0.00 0.00 0.00 69 1034.5
20260507103153 19 173 1.6 1.6 0.00 0.00 0.00 69 1034.5
20260507102653 19 201 0.0 1.6 0.00 0.00 0.00 69 1034.6
20260507102152 19 204 0.0 0.0 0.00 0.00 0.00 71 1034.3
20260507101651 18 175 0.0 0.0 0.00 0.00 0.00 71 1034.6
20260507101151 18 191 1.6 1.6 0.00 0.00 0.00 72 1034.6
20260507100650 18 47 1.6 3.2 0.00 0.00 0.00 72 1034.6
20260507100150 18 220 1.6 1.6 0.00 0.00 0.00 73 1034.3
20260507095647 18 303 1.6 3.2 0.00 0.00 0.00 72 1034.6
20260507095146 18 205 4.8 6.4 0.00 0.00 0.00 72 1034.4
20260507094646 18 279 0.0 1.6 0.00 0.00 0.00 72 1034.5
20260507094145 19 38 3.2 4.8 0.00 0.00 0.00 71 1034.4
20260507093644 19 276 1.6 1.6 0.00 0.00 0.00 71 1034.6
20260507093144 19 141 1.6 3.2 0.00 0.00 0.00 70 1034.3
20260507092643 18 208 0.0 1.6 0.00 0.00 0.00 72 1034.2
20260507092143 18 166 3.2 4.8 0.00 0.00 0.00 72 1034.2
20260507091642 18 184 1.6 3.2 0.00 0.00 0.00 71 1034.0
20260507091142 18 162 3.2 3.2 0.00 0.00 0.00 72 1034.0
20260507090641 18 160 1.6 3.2 0.00 0.00 0.00 72 1034.3
20260507090141 18 64 1.6 3.2 0.00 0.00 0.00 74 1033.9
20260507085640 18 49 1.6 3.2 0.00 0.00 0.00 74 1033.9
20260507085140 18 169 1.6 1.6 0.00 0.00 0.00 74 1033.9
20260507084639 18 187 4.8 6.4 0.00 0.00 0.00 75 1033.7
20260507084139 17 215 1.6 3.2 0.00 0.00 0.00 76 1033.9
20260507083638 17 145 1.6 1.6 0.00 0.00 0.00 77 1033.9
20260507083138 18 209 1.6 3.2 0.00 0.00 0.00 76 1033.7
20260507082637 17 146 3.2 4.8 0.00 0.00 0.00 78 1033.7
20260507082136 17 206 1.6 3.2 0.00 0.00 0.00 78 1033.5
20260507081636 17 233 8.0 11.3 0.00 0.00 0.00 78 1033.5
20260507081137 17 176 1.6 1.6 0.00 0.00 0.00 78 1033.6
20260507080626 17 169 0.0 0.0 0.00 0.00 0.00 79 1033.6
20260507080125 17 198 1.6 4.8 0.00 0.00 0.00 79 1033.5
20260507075625 17 182 3.2 3.2 0.00 0.00 0.00 80 1033.6
20260507075124 17 186 1.6 3.2 0.00 0.00 0.00 79 1033.4
20260507074624 17 159 4.8 6.4 0.00 0.00 0.00 79 1033.3
20260507074123 17 152 3.2 4.8 0.00 0.00 0.00 78 1033.2
20260507073623 17 162 1.6 1.6 0.00 0.00 0.00 79 1033.1
20260507073122 16 162 3.2 4.8 0.00 0.00 0.00 79 1033.0
20260507072621 16 176 1.6 1.6 0.00 0.00 0.00 79 1032.8
20260507072121 16 152 3.2 4.8 0.00 0.00 0.00 79 1033.0
20260507071620 16 171 3.2 6.4 0.00 0.00 0.00 80 1033.0
20260507071120 16 160 6.4 8.0 0.00 0.00 0.00 80 1032.8
20260507070619 16 142 3.2 6.4 0.00 0.00 0.00 80 1032.6
20260507070118 16 165 4.8 9.7 0.00 0.00 0.00 80 1033.0
20260507065618 16 153 8.0 11.3 0.00 0.00 0.00 80 1032.6
20260507065117 16 167 1.6 3.2 0.00 0.00 0.00 80 1032.7
20260507064617 16 155 6.4 9.7 0.00 0.00 0.00 79 1032.7
20260507064116 16 171 4.8 6.4 0.00 0.00 0.00 79 1032.6
20260507063616 16 175 4.8 6.4 0.00 0.00 0.00 79 1032.4
20260507063115 16 158 3.2 4.8 0.00 0.00 0.00 80 1032.4
20260507062615 16 172 8.0 11.3 0.00 0.00 0.00 79 1032.7
20260507062114 16 170 4.8 8.0 0.00 0.00 0.00 79 1032.6
20260507061613 16 179 4.8 8.0 0.00 0.00 0.00 79 1032.4
20260507061113 16 182 4.8 8.0 0.00 0.00 0.00 80 1032.5
20260507060612 16 176 1.6 3.2 0.00 0.00 0.00 80 1032.4
20260507060112 16 176 6.4 9.7 0.00 0.00 0.00 81 1032.2
20260507055611 15 177 3.2 4.8 0.00 0.00 0.00 81 1032.4
20260507055111 15 168 1.6 3.2 0.00 0.00 0.00 82 1032.0
20260507054610 15 166 3.2 3.2 0.00 0.00 0.00 82 1032.2
20260507054110 15 175 1.6 3.2 0.00 0.00 0.00 83 1031.9
20260507053609 15 169 1.6 3.2 0.00 0.00 0.00 83 1032.1
20260507053109 15 175 3.2 3.2 0.00 0.00 0.00 83 1032.0
20260507052608 15 177 3.2 4.8 0.00 0.00 0.00 83 1032.0
20260507052108 15 167 3.2 4.8 0.00 0.00 0.00 83 1031.7
20260507051607 15 173 1.6 1.6 0.00 0.00 0.00 83 1032.0
20260507051106 15 169 0.0 1.6 0.00 0.00 0.00 83 1032.0
20260507050606 15 167 1.6 3.2 0.00 0.00 0.00 82 1031.4
20260507050105 15 163 3.2 4.8 0.00 0.00 0.00 82 1031.8
20260507045605 15 168 0.0 0.0 0.00 0.00 0.00 82 1031.8
20260507045105 15 171 3.2 3.2 0.00 0.00 0.00 82 1031.9
20260507044604 15 169 1.6 3.2 0.00 0.00 0.00 82 1031.6
20260507044103 15 170 3.2 3.2 0.00 0.00 0.00 82 1031.8
20260507043603 15 171 3.2 3.2 0.00 0.00 0.00 81 1031.5
20260507043102 15 174 1.6 3.2 0.00 0.00 0.00 81 1031.8
20260507042602 15 167 1.6 3.2 0.00 0.00 0.00 80 1031.6
20260507042101 15 165 3.2 4.8 0.00 0.00 0.00 80 1031.4
20260507041601 15 169 1.6 1.6 0.00 0.00 0.00 79 1031.5
20260507041100 15 167 0.0 1.6 0.00 0.00 0.00 79 1031.4
20260507040600 16 166 1.6 1.6 0.00 0.00 0.00 79 1031.4
20260507040100 16 175 3.2 6.4 0.00 0.00 0.00 79 1031.2
20260507035559 16 165 3.2 3.2 0.00 0.00 0.00 78 1031.1
20260507035058 16 173 3.2 4.8 0.00 0.00 0.00 78 1031.2
20260507034557 16 183 4.8 6.4 0.00 0.00 0.00 78 1031.1
20260507034057 16 163 3.2 3.2 0.00 0.00 0.00 77 1031.3
20260507033556 16 167 1.6 1.6 0.00 0.00 0.00 77 1031.1
20260507033056 16 164 1.6 3.2 0.00 0.00 0.00 78 1030.9
20260507032555 16 167 0.0 1.6 0.00 0.00 0.00 78 1031.1
20260507032055 16 166 0.0 1.6 0.00 0.00 0.00 78 1030.9
20260507031554 16 167 1.6 1.6 0.00 0.00 0.00 78 1030.7
20260507031053 16 167 1.6 1.6 0.00 0.00 0.00 78 1030.7
20260507030553 16 167 0.0 1.6 0.00 0.00 0.00 78 1030.9
20260507030052 16 166 0.0 0.0 0.00 0.00 0.00 78 1030.6
20260507025552 16 166 0.0 1.6 0.00 0.00 0.00 78 1030.7
20260507025052 16 167 0.0 0.0 0.00 0.00 0.00 78 1030.7
20260507024551 15 166 0.0 1.6 0.00 0.00 0.00 78 1030.9
20260507024050 15 166 0.0 0.0 0.00 0.00 0.00 79 1030.7
20260507023550 15 166 0.0 0.0 0.00 0.00 0.00 80 1030.7
20260507023049 15 166 0.0 0.0 0.00 0.00 0.00 81 1030.7
20260507022549 15 166 0.0 0.0 0.00 0.00 0.00 81 1030.4
20260507022048 15 166 0.0 0.0 0.00 0.00 0.00 81 1030.6
20260507021548 15 167 0.0 0.0 0.00 0.00 0.00 81 1030.6
20260507021047 15 167 0.0 0.0 0.00 0.00 0.00 81 1030.5
20260507020547 15 167 0.0 0.0 0.00 0.00 0.00 81 1030.5
20260507020046 15 167 0.0 1.6 0.00 0.00 0.00 81 1030.7
20260507015546 15 167 0.0 0.0 0.00 0.00 0.00 81 1030.5
20260507015045 15 167 0.0 0.0 0.00 0.00 0.00 81 1030.5
20260507014545 15 168 0.0 0.0 0.00 0.00 0.00 81 1030.6
20260507014044 15 164 0.0 1.6 0.00 0.00 0.00 81 1030.5
20260507013544 15 167 0.0 0.0 0.00 0.00 0.00 81 1030.5
20260507013043 14 167 0.0 0.0 0.00 0.00 0.00 81 1030.5
20260507012543 15 167 0.0 0.0 0.00 0.00 0.00 80 1030.4
20260507012042 15 167 0.0 0.0 0.00 0.00 0.00 80 1030.1
20260507011542 15 167 0.0 0.0 0.00 0.00 0.00 80 1030.6
20260507011041 15 167 0.0 1.6 0.00 0.00 0.00 80 1030.5
20260507010541 15 168 0.0 0.0 0.00 0.00 0.00 80 1030.3
20260507010040 15 168 0.0 0.0 0.00 0.00 0.00 79 1030.5
20260507005539 15 168 0.0 0.0 0.00 0.00 0.00 78 1030.3
20260507005039 15 168 0.0 0.0 0.00 0.00 0.00 77 1030.3
20260507004038 15 169 0.0 0.0 0.00 0.00 0.00 77 1030.2
20260507003537 15 169 0.0 0.0 0.00 0.00 0.00 76 1030.3
20260507003037 16 169 0.0 0.0 0.00 0.00 0.00 76 1030.3
20260507002536 15 169 0.0 0.0 0.00 0.00 0.00 76 1030.4
20260507002036 15 170 0.0 0.0 0.00 0.00 0.00 76 1030.4
20260507001535 16 173 0.0 0.0 0.00 0.00 0.00 75 1030.2
20260507001035 16 173 0.0 0.0 0.00 0.00 0.00 74 1030.2
20260507000534 16 182 0.0 0.0 0.00 0.00 0.00 74 1030.1
20260507000033 16 182 0.0 0.0 0.00 0.00 0.00 73 1030.1
20260506235533 16 183 0.0 0.0 0.00 0.00 0.00 72 1030.3
20260506235032 17 183 0.0 0.0 0.00 0.00 0.00 71 1030.3
20260506234532 17 175 0.0 0.0 0.00 0.00 0.00 71 1030.8
20260506234031 17 169 0.0 0.0 0.00 0.00 0.00 71 1030.6
20260506233531 17 174 0.0 0.0 0.00 0.00 0.00 70 1030.4
20260506233030 17 191 1.6 1.6 0.00 0.00 0.00 69 1030.3
20260506232530 17 184 0.0 0.0 0.00 0.00 0.00 69 1030.2
20260506232029 17 180 1.6 1.6 0.00 0.00 0.00 69 1030.2
20260506231529 17 172 0.0 0.0 0.00 0.00 0.00 69 1030.2
20260506231028 17 170 0.0 0.0 0.00 0.00 0.00 68 1030.3
20260506230528 18 214 1.6 3.2 0.00 0.00 0.00 68 1030.1
20260506230027 17 197 0.0 1.6 0.00 0.00 0.00 68 1030.3
20260506225527 17 200 1.6 3.2 0.00 0.00 0.00 68 1030.7
20260506225026 17 179 1.6 1.6 0.00 0.00 0.00 68 1030.4
20260506224526 17 182 0.0 0.0 0.00 0.00 0.00 69 1030.4
20260506224025 17 189 0.0 0.0 0.00 0.00 0.00 69 1030.4
20260506223525 17 189 0.0 0.0 0.00 0.00 0.00 68 1030.1
20260506223024 18 189 0.0 0.0 0.00 0.00 0.00 67 1030.1
20260506222524 18 185 0.0 1.6 0.00 0.00 0.00 67 1030.2
20260506222023 18 194 0.0 1.6 0.00 0.00 0.00 66 1030.1
20260506221522 18 181 0.0 1.6 0.00 0.00 0.00 66 1030.2
20260506221022 18 186 0.0 0.0 0.00 0.00 0.00 66 1030.3
20260506220521 18 194 0.0 1.6 0.00 0.00 0.00 66 1030.3
20260506220021 18 159 1.6 3.2 0.00 0.00 0.00 65 1030.2
20260506215520 18 183 0.0 1.6 0.00 0.00 0.00 65 1030.1
20260506215020 18 196 0.0 1.6 0.00 0.00 0.00 65 1030.1
20260506214519 18 192 0.0 0.0 0.00 0.00 0.00 65 1030.1
20260506214019 18 191 0.0 0.0 0.00 0.00 0.00 64 1030.0
20260506213518 18 189 0.0 1.6 0.00 0.00 0.00 64 1030.1
20260506213017 18 198 1.6 1.6 0.00 0.00 0.00 64 1030.3
20260506212517 18 190 1.6 3.2 0.00 0.00 0.00 64 1030.2
20260506212016 18 187 1.6 1.6 0.00 0.00 0.00 64 1030.4
20260506211516 19 183 0.0 0.0 0.00 0.00 0.00 64 1030.2
20260506211015 19 181 0.0 0.0 0.00 0.00 0.00 64 1030.2
20260506210515 19 193 0.0 0.0 0.00 0.00 0.00 63 1030.4
20260506210014 19 181 1.6 3.2 0.00 0.00 0.00 63 1030.2
20260506205512 19 198 3.2 3.2 0.00 0.00 0.00 63 1030.1
20260506205011 19 192 3.2 3.2 0.00 0.00 0.00 64 1030.2
20260506204511 18 178 0.0 1.6 0.00 0.00 0.00 64 1030.1
20260506204010 18 183 0.0 0.0 0.00 0.00 0.00 65 1030.0
20260506203510 18 182 0.0 1.6 0.00 0.00 0.00 64 1030.0
20260506203009 18 182 0.0 0.0 0.00 0.00 0.00 65 1030.2
20260506202508 18 193 0.0 1.6 0.00 0.00 0.00 65 1029.8
20260506202008 18 167 0.0 0.0 0.00 0.00 0.00 65 1030.0
20260506201507 18 163 0.0 0.0 0.00 0.00 0.00 65 1030.0
20260506201007 18 169 0.0 1.6 0.00 0.00 0.00 65 1030.1
20260506200506 18 171 0.0 0.0 0.00 0.00 0.00 64 1029.9
20260506200005 19 178 0.0 0.0 0.00 0.00 0.00 64 1029.9
20260506195504 19 193 0.0 0.0 0.00 0.00 0.00 62 1030.0
20260506195004 20 176 0.0 0.0 0.00 0.00 0.00 61 1029.9
20260506194503 20 171 1.6 3.2 0.00 0.00 0.00 61 1030.0
20260506194003 20 186 4.8 6.4 0.00 0.00 0.00 61 1030.0
20260506193502 20 171 1.6 1.6 0.00 0.00 0.00 60 1030.0
20260506193001 20 185 0.0 1.6 0.00 0.00 0.00 60 1029.6
20260506192501 20 177 0.0 1.6 0.00 0.00 0.00 60 1029.9
20260506192000 20 162 0.0 0.0 0.00 0.00 0.00 60 1029.7
20260506191459 20 160 3.2 4.8 0.00 0.00 0.00 59 1029.7
20260506190959 20 195 3.2 4.8 0.00 0.00 0.00 59 1029.8
20260506190458 20 181 0.0 0.0 0.00 0.00 0.00 59 1029.8
20260506185958 20 194 0.0 1.6 0.00 0.00 0.00 59 1029.8
20260506185457 21 167 1.6 4.8 0.00 0.00 0.00 58 1029.6
20260506184956 21 159 0.0 0.0 0.00 0.00 0.00 58 1029.4
20260506184456 21 172 3.2 4.8 0.00 0.00 0.00 58 1029.5
20260506183955 21 154 4.8 6.4 0.00 0.00 0.00 58 1029.7
20260506183455 21 181 1.6 3.2 0.00 0.00 0.00 59 1029.5
20260506182954 21 164 0.0 1.6 0.00 0.00 0.00 58 1029.4
20260506182454 21 179 1.6 3.2 0.00 0.00 0.00 58 1029.5
20260506181953 21 134 1.6 1.6 0.00 0.00 0.00 58 1029.5
20260506181453 21 149 1.6 3.2 0.00 0.00 0.00 58 1029.4
20260506180952 21 187 1.6 3.2 0.00 0.00 0.00 57 1029.3
20260506180451 21 186 0.0 1.6 0.00 0.00 0.00 57 1029.2
20260506175951 22 188 4.8 4.8 0.00 0.00 0.00 56 1029.4
20260506175450 22 202 3.2 4.8 0.00 0.00 0.00 55 1029.4
20260506174950 22 194 1.6 3.2 0.00 0.00 0.00 55 1029.5
20260506174449 22 188 3.2 3.2 0.00 0.00 0.00 54 1029.3
20260506173948 22 174 3.2 4.8 0.00 0.00 0.00 54 1029.4
20260506173448 22 185 6.4 9.7 0.00 0.00 0.00 54 1029.1
20260506172947 22 149 4.8 6.4 0.00 0.00 0.00 54 1029.2
20260506172447 22 213 3.2 4.8 0.00 0.00 0.00 54 1029.4
20260506171946 22 162 3.2 4.8 0.00 0.00 0.00 54 1029.3
20260506171446 22 164 4.8 4.8 0.00 0.00 0.00 54 1029.3
20260506170945 22 204 1.6 3.2 0.00 0.00 0.00 54 1029.2
20260506170445 22 173 1.6 3.2 0.00 0.00 0.00 54 1029.2
20260506165944 22 194 1.6 1.6 0.00 0.00 0.00 54 1029.4
20260506165443 22 175 3.2 3.2 0.00 0.00 0.00 53 1029.4
20260506164943 22 192 1.6 3.2 0.00 0.00 0.00 53 1029.4
20260506164442 22 211 3.2 4.8 0.00 0.00 0.00 54 1029.2
20260506163942 22 198 1.6 3.2 0.00 0.00 0.00 53 1029.4
20260506163441 22 167 1.6 3.2 0.00 0.00 0.00 53 1029.2
20260506162941 22 176 1.6 1.6 0.00 0.00 0.00 53 1029.5
20260506162440 22 212 3.2 4.8 0.00 0.00 0.00 53 1029.8
20260506161939 22 221 1.6 3.2 0.00 0.00 0.00 53 1029.7
20260506161439 23 189 3.2 6.4 0.00 0.00 0.00 52 1029.7
20260506160938 23 224 6.4 8.0 0.00 0.00 0.00 52 1029.5
20260506160438 23 191 3.2 4.8 0.00 0.00 0.00 51 1029.7
20260506155937 23 104 3.2 3.2 0.00 0.00 0.00 51 1029.6
20260506155437 23 193 1.6 1.6 0.00 0.00 0.00 51 1029.6
20260506154936 23 171 4.8 6.4 0.00 0.00 0.00 50 1029.8
20260506154435 23 172 4.8 6.4 0.00 0.00 0.00 50 1029.8
20260506153935 23 204 1.6 3.2 0.00 0.00 0.00 49 1029.7
20260506153434 23 176 1.6 1.6 0.00 0.00 0.00 49 1029.8
20260506152934 23 151 4.8 8.0 0.00 0.00 0.00 48 1029.9
20260506152433 23 177 1.6 4.8 0.00 0.00 0.00 48 1030.0
20260506151933 23 169 0.0 1.6 0.00 0.00 0.00 48 1029.7
20260506151432 24 157 3.2 4.8 0.00 0.00 0.00 48 1029.9
20260506150932 24 255 3.2 3.2 0.00 0.00 0.00 48 1029.9
20260506150431 24 148 1.6 3.2 0.00 0.00 0.00 48 1029.9
20260506145930 24 254 3.2 4.8 0.00 0.00 0.00 48 1030.0
20260506145430 25 186 3.2 4.8 0.00 0.00 0.00 47 1030.0
20260506144929 24 102 1.6 3.2 0.00 0.00 0.00 47 1030.0
20260506144429 25 164 9.7 12.9 0.00 0.00 0.00 46 1030.0
20260506143928 25 146 1.6 1.6 0.00 0.00 0.00 47 1030.2
20260506143428 25 124 3.2 3.2 0.00 0.00 0.00 46 1030.2
20260506142927 25 173 6.4 9.7 0.00 0.00 0.00 45 1030.1
20260506142426 23 176 0.0 0.0 0.00 0.00 0.00 47 1030.3
20260506141926 23 201 1.6 1.6 0.00 0.00 0.00 49 1030.3
20260506141425 23 83 1.6 3.2 0.00 0.00 0.00 48 1030.3
20260506140925 23 183 4.8 6.4 0.00 0.00 0.00 49 1030.1
20260506140424 23 222 3.2 4.8 0.00 0.00 0.00 49 1030.3
20260506135924 24 193 3.2 4.8 0.00 0.00 0.00 46 1030.5
20260506135423 25 123 3.2 3.2 0.00 0.00 0.00 45 1030.4
20260506134922 24 205 3.2 6.4 0.00 0.00 0.00 49 1030.3
20260506134422 25 183 6.4 9.7 0.00 0.00 0.00 47 1030.5
20260506133421 25 191 1.6 1.6 0.00 0.00 0.00 49 1030.5
20260506132920 25 216 3.2 4.8 0.00 0.00 0.00 47 1030.3
20260506132419 24 160 4.8 12.9 0.00 0.00 0.00 48 1030.6
20260506131919 24 243 4.8 8.0 0.00 0.00 0.00 50 1030.4
20260506131418 24 266 4.8 6.4 0.00 0.00 0.00 49 1030.4
20260506130918 24 148 3.2 4.8 0.00 0.00 0.00 48 1030.3
20260506130417 24 155 1.6 3.2 0.00 0.00 0.00 48 1030.6
20260506125917 24 166 4.8 9.7 0.00 0.00 0.00 49 1030.4
20260506125416 24 214 3.2 4.8 0.00 0.00 0.00 50 1030.6
20260506124915 24 179 3.2 8.0 0.00 0.00 0.00 50 1030.6
20260506124415 24 200 1.6 6.4 0.00 0.00 0.00 51 1030.6
20260506123914 23 136 3.2 4.8 0.00 0.00 0.00 52 1030.7
20260506123414 23 144 1.6 1.6 0.00 0.00 0.00 52 1031.1
20260506122913 23 141 8.0 9.7 0.00 0.00 0.00 53 1030.9
20260506122413 24 130 4.8 6.4 0.00 0.00 0.00 52 1030.8
20260506121912 24 137 4.8 6.4 0.00 0.00 0.00 53 1030.9
20260506121412 23 177 3.2 6.4 0.00 0.00 0.00 52 1030.9
20260506120911 23 133 4.8 4.8 0.00 0.00 0.00 54 1030.6
20260506120411 23 185 3.2 6.4 0.00 0.00 0.00 54 1030.9
20260506115910 23 129 3.2 4.8 0.00 0.00 0.00 53 1030.9
20260506115409 23 184 6.4 8.0 0.00 0.00 0.00 52 1030.8
20260506114909 23 203 4.8 6.4 0.00 0.00 0.00 54 1030.7
20260506114408 23 180 3.2 4.8 0.00 0.00 0.00 54 1030.7
20260506113907 23 257 4.8 4.8 0.00 0.00 0.00 53 1030.9
20260506113407 23 168 1.6 3.2 0.00 0.00 0.00 55 1030.7
20260506112906 23 187 6.4 8.0 0.00 0.00 0.00 56 1030.7
20260506112406 23 166 4.8 6.4 0.00 0.00 0.00 55 1030.8
20260506111905 23 160 1.6 3.2 0.00 0.00 0.00 55 1031.0
20260506111405 23 162 3.2 4.8 0.00 0.00 0.00 56 1030.6
20260506110904 23 166 3.2 4.8 0.00 0.00 0.00 55 1030.8
20260506110403 23 114 6.4 14.5 0.00 0.00 0.00 56 1030.9
20260506105903 22 312 3.2 6.4 0.00 0.00 0.00 56 1031.0
20260506105402 22 162 4.8 4.8 0.00 0.00 0.00 56 1030.8
20260506104902 22 80 6.4 9.7 0.00 0.00 0.00 57 1030.9
20260506104401 22 205 4.8 9.7 0.00 0.00 0.00 56 1030.8